Location: Bergfeld
(52.0500°N, 11.7833°E)
Time: 17:15:47
(UTC+00:00)

Cosmos 1862 - Pass Details

Date: 17 February 2020
Orbit: 539 x 556 km, 82.5° (Epoch: 05 April)

Event Time Altitude Azimuth Distance (km) Brightness Sun altitude
Rises 04:51:20 0° 351° (N) 2,713 6.8 -15.0°
Reaches altitude 10° 04:53:31 10° 354° (N) 1,814 5.9 -14.7°
Maximum altitude 04:57:29 66° 77° (ENE) 593 3.7 -14.1°
Drops below altitude 10° 05:01:25 10° 161° (SSE) 1,798 6.2 -13.5°
Sets 05:03:34 0° 164° (SSE) 2,686 7.1 -13.1°
